H1 CPF 2 NER 2024 7 21 9 203 01 glonass144 H2 2207501 9144 52984 2024 7 21 0 0 0 2024 7 24 23 45 0 900 1 1 0 0 0 1 H9 10 0 60512 0.00000 0 -13484576.742 -18287641.307 -11577087.775 10 0 60512 900.00000 0 -12297875.334 -17212571.463 -14235461.381 10 0 60512 1800.00000 0 -10777833.596 -16054281.536 -16616995.409 10 0 60512 2700.00000 0 -8940478.919 -14873028.748 -18675296.927 10 0 60512 3600.00000 0 -6814426.723 -13726503.982 -20370249.003 10 0 60512 4500.00000 0 -4439947.703 -12667361.385 -21668799.457 10 0 60512 5400.00000 0 -1867546.763 -11740978.120 -22545611.649 10 0 60512 6300.00000 0 843888.305 -10983539.157 -22983564.253 10 0 60512 7200.00000 0 3629292.074 -10420528.186 -22974089.931 10 0 60512 8100.00000 0 6419889.396 -10065688.494 -22517346.030 10 0 60512 9000.00000 0 9145823.513 -9920497.702 -21622213.747 10 0 60512 9900.00000 0 11738834.994 -9974178.417 -20306125.556 10 0 60512 10800.00000 0 14134879.886 -10204244.050 -18594724.135 10 0 60512 11700.00000 0 16276577.963 -10577556.306 -16521359.409 10 0 60512 12600.00000 0 18115388.918 -11051848.987 -14126433.595 10 0 60512 13500.00000 0 19613425.882 -11577652.878 -11456607.300 10 0 60512 14400.00000 0 20744830.954 -12100539.376 -8563882.583 10 0 60512 15300.00000 0 21496655.948 -12563586.887 -5504581.521 10 0 60512 16200.00000 0 21869212.612 -12909964.589 -2338240.976 10 0 60512 17100.00000 0 21875879.125 -13085523.282 873554.030 10 0 60512 18000.00000 0 21542372.667 -13041282.846 4068374.664 10 0 60512 18900.00000 0 20905520.523 -12735710.519 7184166.117 10 0 60512 19800.00000 0 20011583.178 -12136693.333 10160454.627 10 0 60512 20700.00000 0 18914201.580 -11223121.256 12939519.842 10 0 60512 21600.00000 0 17672056.211 -9986014.330 15467509.792 10 0 60512 22500.00000 0 16346337.200 -8429146.413 17695477.210 10 0 60512 23400.00000 0 14998132.136 -6569139.432 19580317.833 10 0 60512 24300.00000 0 13685841.031 -4435024.086 21085593.541 10 0 60512 25200.00000 0 12462726.170 -2067285.070 22182225.646 10 0 60512 26100.00000 0 11374698.488 483569.898 22849046.196 10 0 60512 27000.00000 0 10458431.850 3158858.582 23073197.861 10 0 60512 27900.00000 0 9739882.761 5893914.642 22850375.721 10 0 60512 28800.00000 0 9233276.143 8620530.434 22184906.956 10 0 60512 29700.00000 0 8940598.493 11269552.511 21089667.251 10 0 60512 30600.00000 0 8851618.878 13773523.874 19585835.424 10 0 60512 31500.00000 0 8944436.463 16069264.963 17702490.502 10 0 60512 32400.00000 0 9186531.619 18100287.744 15476058.255 10 0 60512 33300.00000 0 9536276.757 19818943.756 12949616.758 10 0 60512 34200.00000 0 9944843.932 21188217.584 10172073.296 10 0 60512 35100.00000 0 10358429.547 22183091.515 7197227.358 10 0 60512 36000.00000 0 10720702.950 22791424.593 4082736.828 10 0 60512 36900.00000 0 10975376.030 23014309.145 889006.640 10 0 60512 37800.00000 0 11068785.349 22865889.566 -2321979.060 10 0 60512 38700.00000 0 10952377.399 22372650.486 -5487858.831 10 0 60512 39600.00000 0 10584991.209 21572203.779 -8547106.430 10 0 60512 40500.00000 0 9934840.686 20511625.035 -11440230.027 10 0 60512 41400.00000 0 8981111.424 19245409.188 -14110934.332 10 0 60512 42300.00000 0 7715102.766 17833131.264 -16507222.348 10 0 60512 43200.00000 0 6140864.998 16336910.774 -18582414.721 10 0 60512 44100.00000 0 4275302.751 14818786.667 -20296066.196 10 0 60512 45000.00000 0 2147738.271 13338113.649 -21614760.767 10 0 60512 45900.00000 0 -201048.998 11949089.735 -22512769.577 10 0 60512 46800.00000 0 -2720267.923 10698519.358 -22972558.352 10 0 60512 47700.00000 0 -5350987.107 9623906.381 -22985134.143 10 0 60512 48600.00000 0 -8028355.029 8751957.299 -22550224.363 10 0 60512 49500.00000 0 -10684076.899 8097557.539 -21676284.377 10 0 60512 50400.00000 0 -13249045.176 7663263.671 -20380333.307 10 0 60512 51300.00000 0 -15656014.167 7439332.406 -18687621.131 10 0 60512 52200.00000 0 -17842207.053 7404284.449 -16631133.485 10 0 60512 53100.00000 0 -19751746.398 7525978.513 -14250943.934 10 0 60512 54000.00000 0 -21337806.605 7763149.031 -11593426.586 10 0 60512 54900.00000 0 -22564398.428 8067341.377 -8710344.793 10 0 60512 55800.00000 0 -23407711.276 8385161.453 -5657834.370 10 0 60512 56700.00000 0 -23856957.764 8660743.135 -2495301.935 10 0 60512 57600.00000 0 -23914686.172 8838327.937 715739.313 10 0 60512 58500.00000 0 -23596549.048 8864846.593 3912872.729 10 0 60512 59400.00000 0 -22930539.241 8692392.460 7033996.041 10 0 60512 60300.00000 0 -21955727.138 8280481.547 10018529.526 10 0 60512 61200.00000 0 -20720553.735 7598003.297 12808590.660 10 0 60512 62100.00000 0 -19280752.611 6624779.702 15350112.420 10 0 60512 63000.00000 0 -17696989.043 5352667.050 17593883.911 10 0 60512 63900.00000 0 -16032315.838 3786154.037 19496493.848 10 0 60512 64800.00000 0 -14349552.498 1942431.113 21021159.645 10 0 60512 65700.00000 0 -12708696.950 -149072.062 22138427.323 10 0 60512 66600.00000 0 -11164477.154 -2447662.187 22826729.958 10 0 60512 67500.00000 0 -9764143.589 -4902831.002 23072795.152 10 0 60512 68400.00000 0 -8545593.339 -7456117.919 22871894.673 10 0 60512 69300.00000 0 -7535902.564 -10043310.486 22227932.172 10 0 60512 70200.00000 0 -6750327.196 -12596892.888 21153367.626 10 0 60512 71100.00000 0 -6191812.419 -15048642.499 19668979.868 10 0 60512 72000.00000 0 -5851030.563 -17332268.291 17803471.334 10 0 60512 72900.00000 0 -5706945.337 -19385982.991 15592921.834 10 0 60512 73800.00000 0 -5727878.565 -21154903.284 13080100.838 10 0 60512 74700.00000 0 -5873034.805 -22593179.018 10313650.413 10 0 60512 75600.00000 0 -6094420.053 -23665763.145 7347153.467 10 0 60512 76500.00000 0 -6339074.116 -24349748.669 4238104.264 10 0 60512 77400.00000 0 -6551522.823 -24635216.439 1046800.387 10 0 60512 78300.00000 0 -6676346.632 -24525557.829 -2164822.895 10 0 60512 79200.00000 0 -6660756.923 -24037258.144 -5334393.471 10 0 60512 80100.00000 0 -6457070.468 -23199149.104 -8400315.008 10 0 60512 81000.00000 0 -6024976.508 -22051161.189 -11302967.459 10 0 60512 81900.00000 0 -5333499.303 -20642627.699 -13985871.611 10 0 60512 82800.00000 0 -4362571.579 -19030211.449 -16396794.380 10 0 60512 83700.00000 0 -3104150.639 -17275541.074 -18488772.695 10 0 60512 84600.00000 0 -1562828.051 -15442656.226 -20221035.445 10 0 60512 85500.00000 0 244094.760 -13595369.148 -21559804.941 10 0 60513 0.00000 0 2287069.940 -11794653.746 -22478961.771 10 0 60513 900.00000 0 4525289.147 -10096171.047 -22960560.135 10 0 60513 1800.00000 0 6908149.411 -8548037.417 -22995182.135 10 0 60513 2700.00000 0 9377142.382 -7188926.065 -22582125.505 10 0 60513 3600.00000 0 11868086.217 -6046583.759 -21729419.545 10 0 60513 4500.00000 0 14313608.333 -5136823.745 -20453669.324 10 0 60513 5400.00000 0 16645775.408 -4463036.721 -18779730.932 10 0 60513 6300.00000 0 18798760.708 -4016239.613 -16740224.068 10 0 60513 7200.00000 0 20711437.078 -3775658.980 -14374891.524 10 0 60513 8100.00000 0 22329786.970 -3709823.187 -11729818.304 10 0 60513 9000.00000 0 23609028.514 -3778115.759 -8856525.997 10 0 60513 9900.00000 0 24515368.630 -3932722.775 -5810960.722 10 0 60513 10800.00000 0 25027310.030 -4120890.344 -2652395.111 10 0 60513 11700.00000 0 25136457.910 -4287395.181 557733.359 10 0 60513 12600.00000 0 24847793.438 -4377122.337 3757024.149 10 0 60513 13500.00000 0 24179403.790 -4337639.892 6883331.314 10 0 60513 14400.00000 0 23161681.435 -4121660.825 9875972.696 10 0 60513 15300.00000 0 21836027.746 -3689287.449 12676906.760 10 0 60513 16200.00000 0 20253116.640 -3009943.359 15231854.143 10 0 60513 17100.00000 0 18470792.093 -2063911.375 17491342.567 10 0 60513 18000.00000 0 16551688.278 -843412.781 19411655.476 10 0 60513 18900.00000 0 14560672.093 646817.424 20955667.095 10 0 60513 19800.00000 0 12562214.642 2389483.451 22093548.947 10 0 60513 20700.00000 0 10617800.622 4355212.095 22803335.474 10 0 60513 21600.00000 0 8783482.460 6503546.931 23071339.076 10 0 60513 22500.00000 0 7107679.647 8784412.819 22892407.620 10 0 60513 23400.00000 0 5629313.337 11139990.911 22270020.176 10 0 60513 24300.00000 0 4376352.310 13506927.648 21216219.513 10 0 60513 25200.00000 0 3364829.409 15818787.496 19751382.576 10 0 60513 26100.00000 0 2598368.275 18008649.053 17903832.937 10 0 60513 27000.00000 0 2068239.249 20011738.093 15709301.872 10 0 60513 27900.00000 0 1753941.525 21767989.223 13210247.434 10 0 60513 28800.00000 0 1624286.943 23224430.365 10455043.499 10 0 60513 29700.00000 0 1638939.922 24337291.137 7497053.310 10 0 60513 30600.00000 0 1750348.929 25073747.208 4393604.385 10 0 60513 31500.00000 0 1905988.290 25413227.380 1204883.861 10 0 60513 32400.00000 0 2050815.845 25348228.075 -2007224.862 10 0 60513 33300.00000 0 2129842.518 24884600.269 -5180341.833 10 0 60513 34200.00000 0 2090704.762 24041295.880 -8252803.212 10 0 60513 35100.00000 0 1886130.362 22849583.324 -11164863.005 10 0 60513 36000.00000 0 1476192.223 21351764.310 -13859860.022 10 0 60513 36900.00000 0 830253.462 19599445.053 -16285326.689 10 0 60513 37800.00000 0 -71480.001 17651434.007 -18394017.500 10 0 60513 38700.00000 0 -1236866.732 15571354.028 -20144836.480 10 0 60513 39600.00000 0 -2661244.916 13425069.024 -21503644.994 10 0 60513 40500.00000 0 -4327381.847 11278033.011 -22443933.724 10 0 60513 41400.00000 0 -6205961.715 9192672.723 -22947345.308 10 0 60513 42300.00000 0 -8256592.773 7225913.524 -23004037.149 10 0 60513 43200.00000 0 -10429293.007 5426952.218 -22612877.064 10 0 60513 44100.00000 0 -12666393.037 3835369.904 -21781467.712 10 0 60513 45000.00000 0 -14904777.287 2479663.587 -20525999.143 10 0 60513 45900.00000 0 -17078369.926 1376257.518 -18870932.217 10 0 60513 46800.00000 0 -19120761.621 529034.855 -16848518.975 10 0 60513 47700.00000 0 -20967866.941 -70591.797 -14498169.394 10 0 60513 48600.00000 0 -22560500.825 -443075.348 -11865677.090 10 0 60513 49500.00000 0 -23846765.853 -619621.776 -9002319.453 10 0 60513 50400.00000 0 -24784149.948 -640618.927 -5963850.363 10 0 60513 51300.00000 0 -25341246.482 -553674.734 -2809405.912 10 0 60513 52200.00000 0 -25499024.815 -411349.526 399654.716 10 0 60513 53100.00000 0 -25251598.441 -268679.969 3600949.646 10 0 60513 54000.00000 0 -24606459.304 -180600.799 6732291.784 10 0 60513 54900.00000 0 -23584169.518 -199374.499 9732899.037 10 0 60513 55800.00000 0 -22217524.593 -372138.375 12544573.281 10 0 60513 56700.00000 0 -20550224.450 -738673.062 15112825.154 10 0 60513 57600.00000 0 -18635108.874 -1329486.760 17387923.162 10 0 60513 58500.00000 0 -16532031.999 -2164295.851 19325847.434 10 0 60513 59400.00000 0 -14305464.916 -3250965.612 20889130.672 10 0 60513 60300.00000 0 -12021926.321 -4584955.427 22047571.238 10 0 60513 61200.00000 0 -9747347.643 -6149291.762 22778805.905 10 0 60513 62100.00000 0 -7544481.297 -7915070.346 23068732.457 10 0 60513 63000.00000 0 -5470458.441 -9842467.236 22911775.057 10 0 60513 63900.00000 0 -3574596.186 -11882217.536 22310988.025 10 0 60513 64800.00000 0 -1896543.711 -13977501.412 21277996.398 10 0 60513 65700.00000 0 -464842.744 -16066160.335 19832774.379 10 0 60513 66600.00000 0 704039.094 -18083152.776 18003265.482 10 0 60513 67500.00000 0 1606162.995 -19963148.603 15824850.956 10 0 60513 68400.00000 0 2250043.585 -21643155.366 13339675.639 10 0 60513 69300.00000 0 2656047.154 -23065067.919 10595843.144 10 0 60513 70200.00000 0 2855288.963 -24178035.535 7646494.756 10 0 60513 71100.00000 0 2888075.980 -24940547.751 4548788.776 10 0 60513 72000.00000 0 2801960.535 -25322151.364 1362799.289 10 0 60513 72900.00000 0 2649486.849 -25304725.999 -1849644.857 10 0 60513 73800.00000 0 2485725.654 -24883263.799 -5026158.590 10 0 60513 74700.00000 0 2365701.333 -24066119.371 -8105013.303 10 0 60513 75600.00000 0 2341820.946 -22874718.282 -11026339.791 10 0 60513 76500.00000 0 2461414.693 -21342735.132 -13733297.581 10 0 60513 77400.00000 0 2764492.990 -19514774.693 -16173187.222 10 0 60513 78300.00000 0 3281816.361 -17444610.570 -18298483.242 10 0 60513 79200.00000 0 4033361.244 -15193054.617 -20067767.059 10 0 60513 80100.00000 0 5027248.158 -12825545.993 -21446541.064 10 0 60513 81000.00000 0 6259179.147 -10409560.588 -22407907.579 10 0 60513 81900.00000 0 7712409.862 -8011949.117 -22933099.066 10 0 60513 82800.00000 0 9358258.999 -5696315.207 -23011848.929 10 0 60513 83700.00000 0 11157134.993 -3520543.049 -22642595.439 10 0 60513 84600.00000 0 13060037.973 -1534577.818 -21832514.562 10 0 60513 85500.00000 0 15010474.656 221448.590 -20597380.878 10 0 60514 0.00000 0 16946706.158 1718668.500 -18961259.300 10 0 60514 900.00000 0 18804235.593 2940446.845 -16956032.614 10 0 60514 1800.00000 0 20518428.368 3882825.561 -14620776.363 10 0 60514 2700.00000 0 22027158.368 4554429.313 -12000990.579 10 0 60514 3600.00000 0 23273365.897 4975836.127 -9147705.801 10 0 60514 4500.00000 0 24207420.581 5178442.076 -6116480.630 10 0 60514 5400.00000 0 24789189.462 5202869.690 -2966311.239 10 0 60514 6300.00000 0 24989723.258 5096989.232 241525.065 10 0 60514 7200.00000 0 24792490.087 4913638.301 3444668.727 10 0 60514 8100.00000 0 24194105.223 4708137.825 6580895.121 10 0 60514 9000.00000 0 23204526.934 4535710.807 9589325.650 10 0 60514 9900.00000 0 21846711.030 4448913.951 12411608.773 10 0 60514 10800.00000 0 20155739.559 4495191.260 14993047.946 10 0 60514 11700.00000 0 18177460.984 4714653.095 17283654.916 10 0 60514 12600.00000 0 15966699.378 5138174.264 19239108.562 10 0 60514 13500.00000 0 13585107.779 5785890.930 20821601.732 10 0 60514 14400.00000 0 11098755.094 6666159.201 22000560.909 10 0 60514 15300.00000 0 8575546.544 7775018.859 22753226.063 10 0 60514 16200.00000 0 6082583.964 9096184.648 23065080.802 10 0 60514 17100.00000 0 3683574.260 10601565.776 22930125.576 10 0 60514 18000.00000 0 1436392.083 12252292.510 22350989.457 10 0 60514 18900.00000 0 -609103.853 14000207.949 21338878.760 10 0 60514 19800.00000 0 -2412911.867 15789764.005 19913363.447 10 0 60514 20700.00000 0 -3946310.879 17560243.840 18102005.031 10 0 60514 21600.00000 0 -5192808.610 19248219.499 15939832.364 10 0 60514 22500.00000 0 -6148575.970 20790143.493 13468674.370 10 0 60514 23400.00000 0 -6822350.220 22124967.122 10736361.453 10 0 60514 24300.00000 0 -7234811.440 23196676.782 7795809.819 10 0 60514 25200.00000 0 -7417458.624 23956642.391 4704005.336 10 0 60514 26100.00000 0 -7411032.681 24365679.334 1520905.810 10 0 60514 27000.00000 0 -7263552.703 24395736.833 -1691717.642 10 0 60514 27900.00000 0 -7028048.347 24031140.895 -4871477.894 10 0 60514 28800.00000 0 -6760084.233 23269338.347 -7956584.437 10 0 60514 29700.00000 0 -6515181.356 22121109.312 -10887047.470 10 0 60514 30600.00000 0 -6346245.169 20610237.694 -13605849.544 10 0 60514 31500.00000 0 -6301109.963 18772652.154 -16060061.296 10 0 60514 32400.00000 0 -6420304.507 16655072.367 -18201878.910 10 0 60514 33300.00000 0 -6735134.632 14313216.296 -19989562.490 10 0 60514 34200.00000 0 -7266165.191 11809642.828 -21388256.438 10 0 60514 35100.00000 0 -8022166.913 9211319.519 -22370675.424 10 0 60514 36000.00000 0 -8999573.997 6587016.771 -22917642.166 10 0 60514 36900.00000 0 -10182476.677 4004637.194 -23018466.214 10 0 60514 37800.00000 0 -11543150.245 1528591.490 -22671156.132 10 0 60514 38700.00000 0 -13043099.292 -782669.696 -21882460.687 10 0 60514 39600.00000 0 -14634573.958 -2878865.144 -20667738.094 10 0 60514 40500.00000 0 -16262494.920 -4719741.740 -19050655.717 10 0 60514 41400.00000 0 -17866706.344 -6276505.452 -17062726.015 10 0 60514 42300.00000 0 -19384461.981 -7532765.584 -14742687.842 10 0 60514 43200.00000 0 -20753039.506 -8484953.970 -12135745.366 10 0 60514 44100.00000 0 -21912372.683 -9142203.045 -9292679.792 10 0 60514 45000.00000 0 -22807590.028 -9525689.656 -6268851.818 10 0 60514 45900.00000 0 -23391352.589 -9667474.202 -3123114.994 10 0 60514 46800.00000 0 -23625892.128 -9608886.064 83337.987 10 0 60514 47700.00000 0 -23484663.686 -9398525.480 3288172.651 10 0 60514 48600.00000 0 -22953543.121 -9089968.076 6429129.572 10 0 60514 49500.00000 0 -22031519.597 -8739270.643 9445236.346 10 0 60514 50400.00000 0 -20730854.455 -8402384.751 12277990.621 10 0 60514 51300.00000 0 -19076700.502 -8132588.222 14872491.151 10 0 60514 52200.00000 0 -17106198.271 -7978043.249 17178495.203 10 0 60514 53100.00000 0 -14867087.653 -7979584.085 19151382.426 10 0 60514 54000.00000 0 -12415893.132 -8168827.139 20753007.521 10 0 60514 54900.00000 0 -9815758.206 -8566682.464 21952426.433 10 0 60514 55800.00000 0 -7134018.681 -9182328.609 22726483.300 10 0 60514 56700.00000 0 -4439614.803 -10012693.426 23060248.132 10 0 60514 57600.00000 0 -1800448.383 -11042462.411 22947297.870 10 0 60514 58500.00000 0 719206.972 -12244614.407 22389836.204 10 0 60514 59400.00000 0 3061136.834 -13581462.775 21398650.257 10 0 60514 60300.00000 0 5175359.117 -15006159.437 19992904.979 10 0 60514 61200.00000 0 7021950.842 -16464600.026 18199778.804 10 0 60514 62100.00000 0 8572454.114 -17897651.825 16053946.803 10 0 60514 63000.00000 0 9810803.994 -19243612.589 13596920.287 10 0 60514 63900.00000 0 10733740.451 -20440798.480 10876254.429 10 0 60514 64800.00000 0 11350687.773 -21430153.551 7944638.030 10 0 60514 65700.00000 0 11683106.769 -22157771.828 4858881.941 10 0 60514 66600.00000 0 11763347.044 -22577226.101 1678824.888 10 0 60514 67500.00000 0 11633047.596 -22651605.155 -1533822.671 10 0 60514 68400.00000 0 11341153.055 -22355172.888 -4716674.541 10 0 60514 69300.00000 0 10941629.307 -21674578.258 -7807881.287 10 0 60514 70200.00000 0 10490975.160 -20609563.651 -10747335.415 10 0 60514 71100.00000 0 10045635.610 -19173140.222 -13477845.290 10 0 60514 72000.00000 0 9659426.691 -17391221.156 -15946254.265 10 0 60514 72900.00000 0 9381081.594 -15301726.684 -18104482.603 10 0 60514 73800.00000 0 9252022.762 -12953196.964 -19910471.253 10 0 60514 74700.00000 0 9304455.225 -10402969.841 -21329008.481 10 0 60514 75600.00000 0 9559862.813 -7714998.830 -22332422.796 10 0 60514 76500.00000 0 10027971.901 -4957401.884 -22901128.264 10 0 60514 77400.00000 0 10706227.461 -2199842.919 -23024011.279 10 0 60514 78300.00000 0 11579804.463 489144.911 -22698650.978 10 0 60514 79200.00000 0 12622154.975 3044782.735 -21931368.821 10 0 60514 80100.00000 0 13796068.464 5408507.024 -20737106.170 10 0 60514 81000.00000 0 15055201.015 7530165.794 -19139132.138 10 0 60514 81900.00000 0 16346009.147 9369858.726 -17168587.325 10 0 60514 82800.00000 0 17610006.598 10899344.974 -14863872.398 10 0 60514 83700.00000 0 18786248.617 12102960.736 -12269893.636 10 0 60514 84600.00000 0 19813938.518 12978009.428 -9437180.491 10 0 60514 85500.00000 0 20635045.943 13534609.671 -6420892.976 10 0 60515 0.00000 0 21196825.761 13795009.287 -3279739.214 10 0 60515 900.00000 0 21454131.063 13792396.298 -74823.406 10 0 60515 1800.00000 0 21371421.644 13569258.765 3131548.180 10 0 60515 2700.00000 0 20924384.128 13175365.110 6277084.722 10 0 60515 3600.00000 0 20101094.765 12665451.500 9300723.272 10 0 60515 4500.00000 0 18902676.565 12096715.523 12143813.731 10 0 60515 5400.00000 0 17343423.492 11526222.930 14751252.940 10 0 60515 6300.00000 0 15450386.959 11008337.341 17072546.165 10 0 60515 7200.00000 0 13262442.308 10592281.378 19062775.986 10 0 60515 8100.00000 0 10828874.461 10319931.542 20683460.800 10 0 60515 9000.00000 0 8207541.637 10223938.999 21903287.510 10 0 60515 9900.00000 0 5462693.129 10326254.434 22698705.574 10 0 60515 10800.00000 0 2662531.005 10637118.089 23054372.174 10 0 60515 11700.00000 0 -123384.285 11154556.733 22963441.092 10 0 60515 12600.00000 0 -2826778.277 11864408.272 22427690.517 10 0 60515 13500.00000 0 -5383248.926 12740873.021 21457487.767 10 0 60515 14400.00000 0 -7734689.710 13747568.955 20071591.653 10 0 60515 15300.00000 0 -9831450.566 14839047.541 18296795.887 10 0 60515 16200.00000 0 -11634148.531 15962707.689 16167419.664 10 0 60515 17100.00000 0 -13115054.101 17061028.791 13724654.183 10 0 60515 18000.00000 0 -14258996.512 18074030.323 11015776.582 10 0 60515 18900.00000 0 -15063750.811 18941855.721 8093245.249 10 0 60515 19800.00000 0 -15539890.872 19607372.630 5013692.879 10 0 60515 20700.00000 0 -15710114.601 20018680.362 1836835.941 10 0 60515 21600.00000 0 -15608069.599 20131418.795 -1375678.935 10 0 60515 22500.00000 0 -15276728.595 19910780.761 -4561469.575 10 0 60515 23400.00000 0 -14766382.979 19333141.987 -7658630.587 10 0 60515 24300.00000 0 -14132339.161 18387238.434 -10606939.575 10 0 60515 25200.00000 0 -13432415.164 17074839.710 -13349033.264 10 0 60515 26100.00000 0 -12724343.636 15410888.389 -15831529.981 10 0 60515 27000.00000 0 -12063191.545 13423097.534 -18006075.995 10 0 60515 27900.00000 0 -11498906.306 11151021.588 -19830294.680 10 0 60515 28800.00000 0 -11074092.803 8644638.091 -21268619.392 10 0 60515 29700.00000 0 -10822116.037 5962498.348 -22292993.364 10 0 60515 30600.00000 0 -10765610.329 3169523.387 -22883422.575 10 0 60515 31500.00000 0 -10915458.793 334536.579 -23028370.483 10 0 60515 32400.00000 0 -11270286.758 -2472364.585 -22724986.701 10 0 60515 33300.00000 0 -11816491.064 -5182488.278 -21979164.932 10 0 60515 34200.00000 0 -12528804.328 -7731168.127 -20805428.875 10 0 60515 35100.00000 0 -13371370.521 -10060213.989 -19226648.221 10 0 60515 36000.00000 0 -14299286.442 -12120091.751 -17273590.190 10 0 60515 36900.00000 0 -15260543.746 -13871741.586 -14984315.423 10 0 60515 37800.00000 0 -16198289.100 -15287959.360 -12403430.211 10 0 60515 38700.00000 0 -17053306.399 -16354284.371 -9581209.946 10 0 60515 39600.00000 0 -17766615.456 -17069357.474 -6572611.499 10 0 60515 40500.00000 0 -18282076.641 -17444736.182 -3436194.448 10 0 60515 41400.00000 0 -18548890.695 -17504176.330 -232973.024 10 0 60515 42300.00000 0 -18523887.569 -17282412.477 2974777.917 10 0 60515 43200.00000 0 -18173507.231 -16823490.440 6124738.813 10 0 60515 44100.00000 0 -17475388.709 -16178724.082 9155758.839 10 0 60515 45000.00000 0 -16419500.428 -15404364.104 12009042.753 10 0 60515 45900.00000 0 -15008764.461 -14559078.346 14629287.997 10 0 60515 46800.00000 0 -13259148.716 -13701350.521 16965750.203 10 0 60515 47700.00000 0 -11199223.442 -12886907.186 18973217.025 10 0 60515 48600.00000 0 -8869200.691 -12166280.976 20612872.421 10 0 60515 49500.00000 0 -6319496.673 -11582611.887 21853035.821 10 0 60515 50400.00000 0 -3608876.480 -11169778.011 22669763.215 10 0 60515 51300.00000 0 -802257.488 -10950933.103 23047299.835 10 0 60515 52200.00000 0 2031738.524 -10937511.254 22978376.850 10 0 60515 53100.00000 0 4823384.416 -11128739.550 22464347.166 10 0 60515 54000.00000 0 7504491.873 -11511678.624 21515158.214 10 0 60515 54900.00000 0 10010992.901 -12061789.258 20149162.286 10 0 60515 55800.00000 0 12285353.322 -12744001.572 18392767.690 10 0 60515 56700.00000 0 14278719.703 -13514242.600 16279936.726 10 0 60515 57600.00000 0 15952711.866 -14321359.025 13851539.118 10 0 60515 58500.00000 0 17280787.348 -15109355.322 11154572.214 10 0 60515 59400.00000 0 18249121.600 -15819854.146 8241261.829 10 0 60515 60300.00000 0 18856967.512 -16394676.183 5168059.960 10 0 60515 61200.00000 0 19116479.217 -16778431.182 1994557.937 10 0 60515 62100.00000 0 19052007.473 -16921010.937 -1217664.573 10 0 60515 63000.00000 0 18698895.985 -16779878.576 -4406232.705 10 0 60515 63900.00000 0 18101829.061 -16322056.613 -7509188.440 10 0 60515 64800.00000 0 17312800.108 -15525728.525 -10466197.737 10 0 60515 65700.00000 0 16388786.574 -14381384.622 -13219728.794 10 0 60515 66600.00000 0 15389229.648 -12892462.009 -15716177.816 10 0 60515 67500.00000 0 14373425.399 -11075449.736 -17906919.718 10 0 60515 68400.00000 0 13397937.946 -8959452.724 -19749262.642 10 0 60515 69300.00000 0 12514144.427 -6585230.991 -21207287.035 10 0 60515 70200.00000 0 11766015.956 -4003752.865 -22252552.490 10 0 60515 71100.00000 0 11188228.761 -1274321.384 -22864658.127 10 0 60515 72000.00000 0 10804685.709 1537648.750 -23031645.295 10 0 60515 72900.00000 0 10627510.927 4363111.612 -22750234.484 10 0 60515 73800.00000 0 10656560.182 7132024.876 -22025891.635 10 0 60515 74700.00000 0 10879467.731 9776029.411 -20872722.392 10 0 60515 75600.00000 0 11272227.537 12231062.084 -19313196.238 10 0 60515 76500.00000 0 11800284.032 14439792.998 -17377705.842 10 0 60515 77400.00000 0 12420085.852 16353785.591 -15103970.272 10 0 60515 78300.00000 0 13081036.243 17935289.809 -12536293.877 10 0 60515 79200.00000 0 13727756.910 19158593.992 -9724695.659 10 0 60515 80100.00000 0 14302568.657 20010879.780 -6723926.644 10 0 60515 81000.00000 0 14748082.988 20492545.448 -3592395.127 10 0 60515 81900.00000 0 15009794.147 20616985.669 -391021.545 10 0 60515 82800.00000 0 15038561.188 20409838.677 2817953.777 10 0 60515 83700.00000 0 14792874.561 19907734.414 5972185.962 10 0 60515 84600.00000 0 14240811.041 19156598.194 9010439.624 10 0 60515 85500.00000 0 13361594.361 18209583.001 11873777.532 99